#timestamp,LO_Frequency,Hit,StdDev 
1503277215.7,286047003.1,N,1.3
1503277235.5,286047003.4,N,1.3
1503277255.4,286047003.2,N,1.3
1503277275.2,286047003.3,N,1.2
1503277295.1,286047005.9,Y,0.0
1503277296.0,286047005.9,P,1.6
1503277315.8,286047002.1,N,1.7
1503277335.6,286047001.7,N,1.7
1503277355.5,286047001.3,N,1.6
1503277375.3,286047004.3,N,1.6
1503277395.1,286047001.7,N,1.6
1503277415.9,286047003.6,N,1.5
1503277435.7,286047003.5,N,1.4
1503277455.6,286047003.6,N,1.4
1503277475.4,286047004.2,Y,0.0
1503277495.2,286047000.6,P,1.2
1503277515.1,286047000.1,N,1.3
1503277516.0,286047000.1,N,1.2
1503277535.8,286047000.5,N,1.1
1503277555.7,286047002.7,N,1.2
1503277575.5,286047002.8,N,1.3
1503277595.3,286046999.7,N,1.3
1503277615.2,286046999.8,N,1.3
1503277635.0,286047002.8,N,1.3
1503277635.9,286047002.8,N,1.4
1503277655.8,286046999.7,N,1.4
1503277675.6,286047000.1,N,1.4
1503277695.4,286047002.8,N,1.4
1503277715.3,286047002.7,N,1.4
1503277735.1,286047002.5,N,1.4
1503277755.8,286047001.9,N,1.3
1503277775.7,286046999.7,N,1.4
1503277795.5,286047002.7,N,1.4
1503277815.4,286047002.7,N,1.3
1503277835.2,286047002.4,N,1.3
1503277855.0,286047002.7,N,1.3
1503277855.9,286047002.7,N,1.3
1503277875.8,286047002.5,N,1.3
1503277895.6,286047002.5,N,1.3
1503277915.5,286047001.4,N,1.3
1503277935.3,286047001.7,N,1.2
1503277955.1,286047001.4,N,1.2
1503277975.9,286047002.0,N,1.2
1503277995.7,286047004.0,Y,0.0
1503278015.5,286047000.3,P,0.7
1503278035.4,286047000.3,N,0.7
1503278055.2,286047002.8,P,1.0
1503278075.1,286046999.7,N,1.1
1503278076.0,286046999.7,N,1.1
1503278095.8,286046999.8,N,1.1
1503278115.6,286047000.1,N,1.0
1503278135.5,286046999.7,N,1.0
1503278155.3,286046999.8,N,1.0
1503278175.2,286047002.4,N,1.1
1503278195.9,286047002.2,N,1.1
1503278215.7,286047002.6,N,1.2
1503278235.6,286047002.1,N,1.2
1503278255.4,286047002.1,N,1.2
1503278275.3,286047002.1,N,1.2
1503278295.1,286047001.6,N,1.2
1503278296.0,286047001.6,N,1.1
1503278315.8,286047001.7,N,1.1
1503278335.7,286047004.3,Y,0.0
1503278355.5,286047002.6,P,0.7
1503278375.4,286047002.0,N,0.6
1503278395.2,286047002.2,P,0.5
1503278415.0,286047002.2,Y,0.0
1503278415.9,286047002.2,P,0.1
1503278435.8,286047000.7,P,0.7
1503278455.6,286046998.2,N,1.6
1503278475.5,286047001.2,N,1.4
1503278495.3,286047000.9,N,1.3
1503278515.1,286047000.9,N,1.2
1503278535.9,286047000.9,N,1.1
1503278555.7,286047000.6,N,1.1
1503278575.6,286047001.2,N,1.0
1503278595.4,286047001.1,N,1.0
1503278615.2,286047001.2,N,0.9
1503278635.1,286047000.6,N,0.9
1503278636.0,286047000.6,N,0.9
1503278655.8,286047002.8,Y,0.0
1503278675.7,286047000.7,P,0.1
1503278695.5,286046999.0,P,0.8
1503278715.3,286046998.9,N,0.9
1503278735.2,286046998.7,N,0.9
1503278755.9,286047001.2,N,1.0
1503278775.7,286047000.7,N,1.0
1503278795.6,286047001.2,N,1.0
1503278815.4,286046998.7,N,1.1
1503278835.3,286047000.7,N,1.0
1503278855.1,286047001.1,N,1.0
1503278856.0,286047001.1,N,1.0
1503278875.8,286047000.8,N,1.0
1503278895.7,286047001.2,N,1.0
1503278915.5,286046998.5,N,1.1
1503278935.4,286047000.8,N,1.0
1503278955.2,286047001.2,N,1.0
1503278975.0,286047001.2,N,1.0
1503278975.9,286047001.2,N,1.0
1503278995.8,286047001.0,N,1.0
1503279015.6,286047000.8,N,1.0
1503279035.5,286047000.1,N,0.9
1503279055.3,286047000.5,N,0.9
1503279075.1,286047001.1,N,0.9
1503279095.9,286047000.4,N,0.9
1503279115.7,286047000.3,N,0.9
1503279135.5,286047000.3,N,0.9
1503279155.4,286047000.8,N,0.9
1503279175.2,286047001.0,N,0.8
1503279195.1,286047000.0,N,0.8
1503279196.0,286047000.0,N,0.8
1503279215.8,286047001.2,N,0.8
1503279235.7,286047001.2,N,0.8
1503279255.5,286047000.6,N,0.8
1503279275.3,286046998.2,N,0.8
1503279295.2,286047000.7,N,0.8
1503279315.0,286047000.9,N,0.8
1503279315.9,286047000.9,N,0.8
1503279335.8,286047001.2,N,0.7
1503279355.6,286047001.2,N,0.7
1503279375.4,286046998.4,N,0.8
1503279395.3,286047000.8,N,0.8
1503279415.1,286046998.2,N,0.9
1503279435.9,286047000.9,N,0.9
1503279455.7,286047000.6,N,0.8
1503279475.5,286047001.2,N,0.8
1503279495.4,286047000.4,N,0.8
1503279515.2,286047000.2,N,0.8
1503279535.0,286047000.3,N,0.8
1503279535.9,286047000.3,N,0.8
1503279555.8,286046999.7,N,0.8
1503279575.6,286047000.4,N,0.8
1503279595.5,286046999.8,N,0.8
1503279615.3,286047002.6,Y,0.0
1503279635.1,286047000.2,P,0.1
1503279655.9,286047002.7,P,1.1
1503279675.7,286047000.4,N,1.0
1503279695.6,286046999.8,N,1.0
1503279715.4,286047000.5,N,0.9
1503279735.2,286047000.7,N,0.9
1503279755.1,286046999.9,N,0.9
1503279756.0,286046999.9,N,0.8
1503279775.8,286046999.9,N,0.8
1503279795.7,286047000.5,N,0.8
1503279815.5,286047001.0,N,0.8
1503279835.3,286047000.0,N,0.7
1503279855.2,286047002.8,Y,0.0
1503279875.0,286047000.6,P,0.1
1503279875.9,286047000.6,P,0.1
1503279895.8,286047000.3,P,0.1
1503279915.6,286047000.8,Y,0.0
1503279935.4,286046998.3,P,1.1
1503279955.3,286046998.3,N,1.0
1503279975.1,286046998.9,N,0.9
1503279995.9,286047001.2,N,1.2
1503280015.7,286047001.2,N,1.3
1503280035.5,286047000.9,N,1.2
1503280055.4,286046998.1,N,1.3
1503280075.2,286047000.8,N,1.3
1503280095.0,286047001.0,N,1.3
1503280096.0,286047001.0,N,1.2
1503280115.8,286046998.4,N,1.3
1503280135.6,286046998.4,N,1.3
1503280155.5,286046996.9,N,1.4
1503280175.3,286046997.8,N,1.5
1503280195.1,286046997.1,N,1.5
1503280215.9,286046997.6,N,1.5
1503280235.7,286046996.7,N,1.6
1503280255.6,286046997.4,N,1.6
1503280275.4,286046995.3,N,1.8
1503280295.2,286046995.4,N,1.9
1503280315.1,286046995.2,N,1.9
1503280316.0,286046995.2,N,2.0
1503280335.8,286046994.1,N,2.1
1503280355.7,286046996.0,N,2.1
1503280375.5,286046994.0,N,2.2
1503280395.3,286046994.2,N,2.3
1503280415.2,286046994.2,N,2.4
1503280435.0,286046993.4,N,2.5
1503280435.9,286046993.4,N,2.5
1503280455.8,286046993.5,N,2.5
1503280475.6,286046993.9,N,2.6
1503280495.4,286046994.2,N,2.6
1503280515.3,286046992.0,Y,0.0
1503280535.1,286046997.4,P,0.3
1503280555.8,286046995.0,P,1.0
1503280575.7,286046995.5,P,1.0
1503280595.5,286046997.7,N,1.1
1503280615.4,286046998.0,N,1.1
1503280635.2,286046997.8,N,1.1
1503280655.0,286046994.9,Y,0.0
1503280655.9,286046994.9,P,1.0
1503280675.8,286046998.3,N,1.4
1503280695.6,286046998.8,N,1.5
1503280715.5,286046998.8,N,1.5
1503280735.3,286046999.6,N,1.6
1503280755.1,286046997.0,N,1.5
1503280775.9,286046997.8,N,1.4
1503280795.7,286046997.1,N,1.3
